Location: St. Louis
(38.6270°N, 90.1994°W)
Time: 12:48:11
(UTC-06:00)

deb Explorer IX - Pass Details

Date: 05 December 2021
Orbit: 544 x 1082 km, 38.8° (Epoch: 16 January)

Event Time Altitude Azimuth Distance (km) Brightness Sun altitude
Rises 13:55:48 0° 280° (W) 2,770 ? 22.3°
Reaches altitude 10° 13:58:11 10° 274° (W) 1,833 ? 22.1°
Maximum altitude 14:02:06 43° 202° (SSW) 764 ? 21.7°
Drops below altitude 10° 14:06:00 10° 130° (SE) 1,809 ? 21.3°
Sets 14:08:20 0° 124° (ESE) 2,728 ? 21.0°
